User: anonymous   Login
Location: Star Hoppers Observatory
(42.7905°N, 83.6127°W)
Time: 03:35:58
(UTC-04:00)
Language:

NOSS 3-1 (A) - Orbit

View from above orbital plane
View from above orbital plane
View from above satellite
View from above satellite

Ground track
Ground track

The orbit data is extracted from the following two-line orbital elements,

1 26905U 01040A   17294.21169126 0.00000000  00000-0  00000-0 0    01
2 26905  63.4120  71.8474 0377000 358.2609   1.7391 13.40752257    08
Epoch (UTC): 21 October 2017 05:04:50
Eccentricity: 0.0377000
inclination: 63.4120°
perigee height: 824 km
apogee height: 1388 km
right ascension of ascending node: 71.8474°
argument of perigee: 358.2609°
revolutions per day: 13.40752257
mean anomaly at epoch: 1.7391°
orbit number at epoch: 0

The dashed part of the orbit path shows where the satellite is in the earth's shadow,  

DLR